EHI
0 0 0 0 0 0 0 0 0 0 0 0 0 0 0 0 1 2 2 1 0 0 0 0 1 2 3 2 2 5 8 9 9 7 6 4 3 2 1 0 0 0 0 0
0 0 0 0 0 0 0 0 0 0 0 0 0 0 0 0 0 1 2 2 1 0 0 0 0 1 2 1 1 3 4 6 6 6 5 3 3 2 1 0 0 0 0 0
0 0 0 0 0 0 0 0 0 0 0 0 0 0 0 0 0 0 1 1 1 0 0 0 0 1 1 1 0 1 1 2 3 4 3 2 2 2 1 0 0 0 0 0
0 0 0 0 0 0 0 0 0 0 0 0 0 0 0 0 0 0 0 0 0 0 0 0 0 0 0 0 0 0 0 1 2 2 2 1 1 1 0 0 0 0 0 0
0 0 0 0 0 0 0 0 0 0 0 0 0 0 0 0 0 0 0 0 0 0 0 0 0 0 0 0 0 0 0 1 2 2 1 0 0 0 0 0 0 0 0 0
0 0 0 0 0 0 0 0 0 0 0 0 0 0 0 0 0 0 0 0 0 0 0 0 0 0 0 0 0 0 0 0 1 1 1 0 0 0 0 0 0 0 0 0
0 0 0 0 0 0 0 0 0 0 0 0 0 0 0 0 0 0 0 0 0 0 0 0 0 0 0 0 0 0 0 0 0 0 0 0 0 0 0 0 0 0 0 0
0 0 0 0 0 0 0 0 0 0 0 0 0 0 0 0 0 0 0 0 0 0 0 0 0 0 0 0 0 0 0 0 0 0 0 0 0 0 0 0 0 0 0 0
0 0 0 0 0 0 0 0 0 0 0 0 0 0 0 0 0 0 0 0 0 0 0 0 0 0 0 0 0 0 0 0 0 0 0 0 0 0 0 0 0 0 0 0
0 0 0 0 0 0 0 0 0 0 0 0 0 0 0 0 0 0 0 0 0 0 0 0 0 0 0 0 0 0 0 0 0 0 0 0 0 0 0 0 0 0 0 0
0 0 0 0 0 0 0 0 0 0 0 0 0 0 0 0 0 0 0 0 0 0 0 0 0 0 0 0 0 0 0 0 0 0 0 0 0 0 0 0 0 0 0 0
0 0 0 0 0 0 0 0 0 0 0 0 0 0 0 0 0 0 0 0 0 0 0 0 0 0 0 0 0 0 0 0 0 0 0 0 0 0 0 0 0 0 0 0
0 0 0 0 0 0 0 0 0 0 0 0 0 0 0 0 0 0 0 0 0 0 0 0 0 0 0 0 0 0 0 0 0 0 0 0 0 0 0 0 0 0 0 0
0 0 0 0 0 0 0 0 0 0 0 0 0 0 0 0 0 0 0 0 0 0 0 0 0 0 0 0 0 0 0 0 0 0 0 0 0 0 0 0 0 0 0 0
0 0 0 0 0 0 0 0 0 0 0 0 0 0 0 0 0 0 0 0 0 0 0 0 0 0 0 0 0 0 0 0 0 0 0 0 0 0 0 0 0 0 0 0
0 0 0 0 0 0 0 0 0 0 0 0 0 0 0 0 0 0 0 0 0 0 0 0 0 0 0 0 0 0 0 0 0 0 0 0 0 0 0 0 0 0 0 0
0 0 0 0 0 0 0 0 0 0 0 0 0 0 0 0 0 0 0 0 0 0 0 0 0 0 0 0 0 0 0 0 0 0 0 0 0 0 0 0 0 0 0 0
0 0 0 0 0 0 0 0 0 0 0 0 0 0 0 0 0 0 0 0 0 0 0 0 0 0 0 0 0 0 0 0 0 0 0 0 0 0 0 0 0 0 0 0
0 0 0 0 0 0 0 0 0 0 0 0 0 0 0 0 0 0 0 0 0 0 0 0 0 0 0 0 0 0 0 0 0 0 0 0 0 0 0 0 0 0 0 0
0 0 0 0 0 0 0 0 0 0 0 0 0 0 0 0 0 0 0 0 0 0 0 0 0 0 0 0 0 0 0 0 0 0 0 0 0 0 0 0 0 0 0 0
0 0 0 0 0 0 0 0 0 0 0 0 0 0 0 0 0 0 0 0 0 0 0 0 0 0 0 0 0 0 0 0 0 0 0 0 0 0 0 0 0 0 0 0
0 0 0 0 0 0 0 0 0 0 0 0 0 0 0 0 0 0 0 0 0 0 0 0 0 0 0 0 0 0 0 0 0 0 0 0 0 0 0 0 0 0 0 0
0 0 0 0 0 0 0 0 0 0 0 0 0 0 0 0 0 0 0 0 0 0 0 0 0 0 0 0 0 0 0 0 0 0 0 0 0 0 0 0 0 0 0 0
0 0 0 0 0 0 0 0 0 0 0 0 0 0 0 0 0 0 0 0 0 0 0 0 0 0 0 0 0 0 0 0 0 0 0 0 0 0 0 0 0 0 0 0
0 0 0 0 0 0 0 0 0 0 0 0 0 0 0 0 0 0 0 0 0 0 0 0 0 0 0 0 0 0 0 0 0 0 0 0 0 0 0 0 0 0 0 0
0 0 0 0 0 0 0 0 0 0 0 0 0 0 0 0 0 0 0 0 0 0 0 0 0 0 0 0 0 0 0 0 0 0 0 0 0 0 0 0 0 0 0 0
Wind_Speed
2 1 1 3 6 8 7 8 9 8 4 7 9 8 6 5 5 6 6 6 5 6 5 3 2 3 4 4 5 5 5 5 4 4 4 4 4 4 3 3 5 5 5 6
1 1 4 4 3 5 7 8 9 6 4 6 8 8 7 6 6 6 5 5 6 5 3 3 2 2 4 5 5 5 5 5 5 4 4 4 4 4 3 3 4 5 5 6
1 4 4 2 3 4 7 9 9 8 5 6 7 8 8 6 5 5 5 5 5 5 4 3 3 4 4 5 6 5 6 6 5 5 4 4 4 3 3 4 4 5 6 6
2 5 4 4 4 5 7 7 9 9 8 6 8 8 6 6 6 5 5 4 4 4 4 3 3 3 4 4 4 5 6 6 6 6 6 7 6 5 5 4 4 5 5 6
3 5 5 4 6 6 7 8 9 9 9 8 8 8 4 5 6 6 5 4 4 4 4 4 3 3 3 3 3 4 6 6 6 6 7 7 6 5 4 5 5 5 5 5
3 3 4 6 7 5 6 6 6 7 7 9 10 9 5 3 6 5 4 4 4 4 4 3 3 2 1 1 2 3 5 6 6 7 7 7 7 6 6 6 5 4 4 4
4 3 4 5 5 3 4 3 3 5 6 6 5 7 3 2 3 4 5 6 6 5 4 4 4 3 2 1 2 3 4 5 6 6 7 7 7 7 7 7 6 5 4 4
6 5 6 6 5 5 4 4 3 4 5 3 3 5 1 4 5 6 6 6 7 6 5 4 4 4 3 2 2 2 4 4 4 5 6 6 6 5 5 6 5 6 5 5
6 5 5 6 6 5 3 2 4 5 5 6 4 3 1 4 7 8 9 8 8 7 6 5 4 4 3 2 2 2 3 3 4 4 5 5 6 6 6 6 6 5 5 4
4 7 6 5 3 3 4 3 3 3 4 5 4 3 2 5 8 9 10 9 9 8 7 6 5 5 4 3 2 2 3 3 3 3 4 3 5 6 5 5 6 5 6 5
4 5 5 3 4 6 4 2 3 3 4 4 4 0 5 5 7 8 9 9 8 8 7 6 6 5 5 4 2 2 2 2 2 3 3 4 4 5 5 5 6 6 5 6
3 4 4 3 3 4 3 3 3 4 3 3 4 1 4 6 7 8 8 8 8 8 7 6 5 5 5 4 3 2 2 2 2 2 3 4 4 4 5 5 5 6 6 6
2 2 4 2 1 2 3 4 4 3 3 3 4 1 3 7 9 9 9 9 8 8 7 6 6 5 5 4 3 2 2 2 2 2 3 3 4 4 4 4 5 5 5 5
2 1 2 5 6 5 5 6 4 2 3 4 4 6 7 9 11 10 10 10 9 8 8 7 7 6 6 5 4 4 3 2 2 2 2 3 4 4 4 4 4 4 4 5
2 2 2 5 6 4 5 6 4 2 3 4 5 6 8 9 10 10 9 9 9 9 9 9 8 7 7 6 6 5 4 3 2 2 2 2 3 3 3 3 3 4 4 4
2 2 3 5 3 3 4 6 5 4 4 4 6 7 7 9 8 9 10 9 9 10 10 9 8 8 7 7 6 6 4 3 2 2 2 2 1 1 2 2 3 3 3 3
2 2 3 4 5 4 3 3 3 3 4 5 6 6 9 9 10 10 10 9 9 10 10 9 8 8 7 7 6 6 5 4 2 2 2 2 1 1 2 2 3 3 3 3
2 2 2 3 3 3 2 3 3 4 4 5 5 7 8 9 10 9 8 8 10 11 11 10 8 8 8 7 6 6 5 3 2 2 2 2 1 1 1 2 3 3 3 3
2 2 2 2 3 4 2 1 3 4 5 4 5 8 9 9 8 5 6 9 10 11 11 9 8 8 7 7 6 6 4 3 2 2 3 2 2 2 2 2 2 2 3 3
1 0 2 2 3 4 2 3 5 4 4 3 6 8 9 8 5 6 10 12 12 12 10 9 8 7 7 7 6 5 4 3 3 3 3 3 3 2 3 3 2 2 2 3
1 0 2 3 4 4 2 4 2 3 4 5 6 7 7 5 6 9 12 12 11 11 11 10 8 6 6 7 6 5 5 5 5 4 4 3 2 2 2 2 2 2 2 3
2 2 2 2 4 3 2 0 2 3 5 5 6 6 7 8 9 10 10 11 11 10 10 9 7 6 6 6 6 5 5 6 5 4 3 3 2 2 1 1 1 2 3 3
4 3 2 4 3 2 1 2 3 3 4 5 6 7 7 9 9 10 10 10 10 10 9 7 7 7 6 6 5 5 6 5 5 4 3 3 2 1 1 1 1 2 2 2
2 2 3 4 6 5 4 4 5 4 5 6 7 7 7 8 9 10 9 9 9 9 7 6 6 7 7 7 6 5 6 5 4 3 3 3 2 2 1 0 1 1 2 2
3 3 3 5 6 6 5 5 5 5 6 6 7 7 7 7 8 8 8 8 8 7 6 6 6 6 7 7 7 6 6 5 4 3 3 3 2 2 1 1 1 0 1 1
4 6 5 5 4 4 4 3 4 5 6 7 7 7 7 6 7 8 7 6 6 6 6 6 6 6 7 7 7 7 6 5 4 3 2 2 2 1 1 1 1 3 1 2
Wind_Direction
36 59 290 266 244 255 249 243 250 254 238 231 234 249 262 268 261 259 257 253 250 251 248 231 220 207 192 179 173 170 164 160 160 161 166 168 166 161 161 160 161 167 168 169
84 345 296 287 260 258 250 247 251 262 248 237 240 254 256 255 253 259 263 261 261 260 254 233 219 204 197 189 181 175 174 170 170 173 173 175 168 167 164 160 167 168 170 169
10 344 324 303 291 264 259 251 251 258 274 244 246 248 238 247 249 266 276 281 271 259 255 245 226 213 204 197 192 185 180 174 174 168 160 150 152 152 161 170 176 178 176 174
345 332 338 322 307 290 264 270 264 251 249 241 235 252 230 240 242 257 272 283 289 288 276 264 250 228 214 209 195 192 182 176 176 173 171 168 171 173 179 179 178 176 175 176
347 340 332 315 302 289 283 286 265 248 243 253 238 248 243 221 241 258 275 286 293 295 292 284 273 259 229 212 193 191 183 177 175 177 178 178 176 175 171 169 170 169 172 177
339 337 331 308 297 286 293 275 251 229 229 241 236 234 248 225 249 265 292 317 327 328 320 313 316 313 279 227 201 189 183 180 178 182 184 185 181 175 168 171 171 170 168 175
340 7 357 332 314 318 323 282 228 210 216 233 224 226 254 344 329 312 314 328 337 339 336 337 340 331 316 262 214 199 182 180 183 186 187 190 190 185 181 180 180 175 173 178
337 337 4 352 333 309 294 263 268 252 244 253 224 226 140 22 3 355 351 350 352 349 344 339 342 330 318 285 245 211 194 188 184 187 191 192 193 191 190 188 184 187 186 186
330 317 344 345 335 325 300 276 292 280 263 249 224 225 214 8 8 6 4 360 355 351 345 336 335 337 331 312 266 237 206 197 191 192 194 193 196 196 194 190 189 189 188 183
305 294 320 335 326 15 332 312 279 261 256 247 237 235 308 353 356 357 359 354 349 347 346 340 334 341 337 326 287 250 218 202 198 198 199 201 202 201 196 191 190 191 189 182
290 288 310 334 360 339 343 331 302 277 285 265 252 176 30 356 347 348 349 347 344 345 343 340 340 340 339 336 332 279 241 220 209 206 206 203 202 201 195 192 194 195 191 186
323 292 291 300 340 337 338 328 290 280 284 277 272 42 39 0 350 348 345 347 344 344 345 344 346 347 342 344 344 327 297 253 234 225 221 208 201 198 195 194 197 196 193 193
328 292 297 282 174 22 360 355 331 289 276 273 268 309 18 355 351 351 349 348 346 346 347 349 351 352 349 345 342 329 316 302 279 240 226 212 198 198 198 197 197 196 193 192
336 314 291 307 324 332 328 337 338 306 275 288 288 302 326 344 344 344 346 346 346 349 350 352 351 349 346 344 344 336 327 315 299 265 235 223 209 206 206 201 197 195 192 191
329 269 262 280 300 314 323 326 334 317 291 282 297 303 324 334 332 330 336 343 347 351 350 349 347 344 341 341 340 336 330 327 316 288 256 246 231 210 201 197 194 192 191 194
334 278 281 284 290 314 332 336 325 312 305 291 297 301 330 328 330 334 338 341 344 344 344 341 340 340 337 336 331 330 327 324 317 297 278 273 259 218 200 194 190 190 188 191
292 272 276 284 317 290 296 320 308 305 311 297 295 315 332 330 333 329 329 334 337 337 335 334 333 334 330 327 323 321 320 315 308 298 292 283 266 243 224 200 191 193 188 183
259 257 258 292 309 275 48 54 334 301 308 310 299 316 325 323 321 321 328 337 337 336 333 330 328 329 326 326 326 323 320 316 309 307 308 293 280 268 252 219 202 198 192 191
250 245 250 272 280 276 272 337 324 297 304 323 310 315 323 324 318 326 347 342 331 327 326 322 323 324 326 331 332 327 325 325 317 311 310 308 285 263 256 243 223 203 187 189
68 322 241 249 271 274 357 351 325 273 280 355 329 322 328 332 319 330 341 333 328 327 327 325 326 329 333 335 334 330 328 332 326 316 306 296 282 256 246 246 232 212 189 182
302 257 245 254 257 274 350 330 287 254 327 343 325 320 323 315 299 310 318 321 323 324 325 325 328 334 336 336 336 334 335 335 325 318 312 309 299 276 258 251 231 198 179 170
245 234 228 232 244 272 41 65 232 306 329 317 315 315 311 303 303 309 315 318 322 325 328 330 334 336 338 342 340 334 336 332 331 327 326 332 329 312 277 240 209 187 175 169
230 237 248 226 253 349 196 244 286 309 300 307 310 310 307 303 306 311 313 316 320 323 326 333 337 335 339 344 342 333 331 334 338 342 344 345 342 323 287 218 182 177 177 171
233 234 232 255 264 273 269 271 289 289 289 299 302 304 303 298 303 308 312 316 320 322 326 333 338 338 340 344 344 337 334 336 340 344 345 348 352 351 354 329 190 179 178 174
250 197 226 256 277 291 268 262 278 290 297 301 304 303 300 297 300 305 308 312 315 319 325 331 336 336 337 340 342 341 341 341 342 343 349 353 355 356 14 20 13 250 209 198
205 202 211 245 251 249 280 289 288 291 296 299 301 304 304 300 297 301 302 307 314 320 328 333 336 336 336 339 340 342 343 343 344 344 348 349 351 347 357 54 55 46 61 57